Date String (YYYY-MM-DD hh:mm:ss) UTC,Instrument flags,Ambient pressure (hPa),Sample flow (lpm),Bypass flow (lpm),Sample temperature (°C),Ambient temperature (°C),ASC tube jacket temperature (°C),LED temperature (°C),Box temperature (°C),Sample RH (%),Span deviation,Mass concentration (μg/m³),Mass concentration (μg/m³),Mass concentration (μg/m³)
DateTimeUTC,F1_M11,P_M11,Q1_M11,Q2_M11,T1_M11,T2_M11,T3_M11,T4_M11,T5_M11,U1_M11,ZSPAN_M11,X0_M11,X2_M11,X1_M11
2023-01-22 12:00:00,,0820.0,5.00,0.00,21.9,20.4,00.0,30.8,23.4,07.9,0000.0,0002.07,0001.31,0000.96
2023-01-22 12:01:00,,0819.9,5.01,0.00,21.9,21.1,00.0,30.8,23.6,07.9,0000.0,0001.95,0001.27,0000.97
2023-01-22 12:02:00,,0819.9,4.99,0.00,22.0,22.0,00.0,30.8,23.9,07.8,0000.0,0001.88,0001.25,0000.98
2023-01-22 12:03:00,,0819.9,5.00,0.00,22.1,22.7,00.0,30.8,24.1,07.8,0000.0,0001.93,0001.26,0000.98
2023-01-22 12:04:00,,0819.9,5.00,0.00,22.2,22.3,00.0,30.9,24.1,07.7,0000.0,0001.91,0001.26,0000.99
2023-01-22 12:05:00,,0819.8,5.01,0.00,22.2,21.7,00.0,30.9,24.0,07.7,0000.0,0001.95,0001.28,0001.01
2023-01-22 12:06:00,,0819.8,5.00,0.00,22.1,21.4,00.0,30.9,23.8,07.7,0000.0,0001.96,0001.29,0001.02
2023-01-22 12:07:00,,0819.9,5.00,0.00,22.1,21.1,00.0,30.9,23.8,07.7,0000.0,0001.95,0001.29,0001.01
2023-01-22 12:08:00,,0819.8,5.00,0.00,22.1,20.9,00.0,30.9,23.7,07.8,0000.0,0001.96,0001.28,0001.01
2023-01-22 12:09:00,,0819.8,5.00,0.00,22.0,20.7,00.0,30.9,23.6,07.8,0000.0,0002.00,0001.31,0001.01
2023-01-22 12:10:00,,0819.8,4.99,0.00,22.0,20.5,00.0,30.9,23.5,07.8,0000.0,0002.01,0001.31,0001.02
2023-01-22 12:11:00,,0819.8,5.00,0.00,21.9,20.4,00.0,30.9,23.5,07.8,0000.0,0002.05,0001.31,0001.01
2023-01-22 12:12:00,,0819.8,5.00,0.00,21.9,20.3,00.0,30.8,23.4,07.8,0000.0,0002.11,0001.33,0001.01
2023-01-22 12:13:00,,0819.8,5.00,0.00,21.9,20.8,00.0,30.8,23.5,07.8,0000.0,0002.15,0001.35,0001.01
2023-01-22 12:14:00,,0819.8,4.99,0.00,22.0,21.7,00.0,30.8,23.8,07.8,0000.0,0002.05,0001.33,0001.01
2023-01-22 12:15:00,,0819.8,5.01,0.00,22.1,22.5,00.0,30.8,24.0,07.8,0000.0,0002.05,0001.33,0001.00
2023-01-22 12:16:00,,0819.8,5.00,0.00,22.2,22.3,00.0,30.8,24.1,07.8,0000.0,0002.06,0001.34,0001.00
2023-01-22 12:17:00,,0819.7,5.01,0.00,22.2,21.8,00.0,30.9,24.0,07.8,0000.0,0002.05,0001.32,0000.99
2023-01-22 12:18:00,,0819.7,5.02,0.00,22.1,21.4,00.0,30.9,23.8,07.8,0000.0,0002.06,0001.30,0000.98
2023-01-22 12:19:00,,0819.7,4.99,0.00,22.1,21.1,00.0,30.9,23.7,07.8,0000.0,0002.03,0001.29,0000.98
2023-01-22 12:20:00,,0819.7,4.99,0.00,22.0,20.8,00.0,30.9,23.6,07.8,0000.0,0001.91,0001.24,0000.97
2023-01-22 12:21:00,,0819.6,5.02,0.00,22.0,20.6,00.0,30.9,23.5,07.8,0000.0,0001.83,0001.20,0000.96
2023-01-22 12:22:00,,0819.6,5.00,0.00,21.9,20.4,00.0,30.9,23.4,07.8,0000.0,0001.86,0001.20,0000.96
2023-01-22 12:23:00,,0819.6,4.99,0.00,21.9,20.4,00.0,30.8,23.3,07.9,0000.0,0001.91,0001.20,0000.95
2023-01-22 12:24:00,,0819.6,5.01,0.00,21.8,20.6,00.0,30.8,23.4,07.9,0000.0,0001.88,0001.18,0000.95
2023-01-22 12:25:00,,0819.6,5.01,0.00,21.9,21.6,00.0,30.8,23.7,07.8,0000.0,0001.91,0001.19,0000.94
2023-01-22 12:26:00,,0819.7,5.00,0.00,22.1,22.5,00.0,30.8,24.0,07.8,0000.0,0001.94,0001.19,0000.92
2023-01-22 12:27:00,,0819.6,4.98,0.00,22.2,22.5,00.0,30.8,24.1,07.8,0000.0,0001.98,0001.19,0000.92
2023-01-22 12:28:00,,0819.6,5.02,0.00,22.2,21.9,00.0,30.9,24.0,07.8,0000.0,0001.92,0001.16,0000.90
2023-01-22 12:29:00,,0819.6,5.00,0.00,22.1,21.5,00.0,30.9,23.9,07.8,0000.0,0001.87,0001.16,0000.90
2023-01-22 12:30:00,,0819.6,5.00,0.00,22.1,21.2,00.0,30.9,23.8,07.8,0000.0,0001.86,0001.17,0000.91
2023-01-22 12:31:00,,0819.6,5.00,0.00,22.1,20.9,00.0,30.9,23.7,07.8,0000.0,0001.89,0001.18,0000.90
2023-01-22 12:32:00,,0819.6,4.99,0.00,22.0,20.7,00.0,30.9,23.6,07.9,0000.0,0001.88,0001.17,0000.90
2023-01-22 12:33:00,,0819.6,5.02,0.00,22.0,20.6,00.0,30.9,23.5,07.9,0000.0,0001.81,0001.14,0000.88
2023-01-22 12:34:00,,0819.6,5.00,0.00,21.9,20.5,00.0,30.9,23.4,07.9,0000.0,0001.68,0001.13,0000.87
2023-01-22 12:35:00,,0819.6,4.98,0.00,21.9,20.4,00.0,30.8,23.4,07.9,0000.0,0001.72,0001.13,0000.86
2023-01-22 12:36:00,,0819.5,5.00,0.00,21.9,20.9,00.0,30.8,23.5,07.9,0000.0,0001.86,0001.16,0000.85
2023-01-22 12:37:00,,0819.6,5.01,0.00,22.0,21.8,00.0,30.8,23.8,07.9,0000.0,0001.85,0001.15,0000.86
2023-01-22 12:38:00,,0819.6,5.00,0.00,22.1,22.6,00.0,30.8,24.1,07.9,0000.0,0001.84,0001.14,0000.86
2023-01-22 12:39:00,,0819.6,4.99,0.00,22.2,22.3,00.0,30.8,24.1,07.9,0000.0,0001.82,0001.13,0000.85
2023-01-22 12:40:00,,0819.6,5.00,0.00,22.2,21.8,00.0,30.9,24.0,07.9,0000.0,0001.83,0001.12,0000.85
2023-01-22 12:41:00,,0819.6,5.02,0.00,22.1,21.4,00.0,30.9,23.9,07.9,0000.0,0001.90,0001.13,0000.84
2023-01-22 12:42:00,,0819.6,4.99,0.00,22.1,21.1,00.0,30.9,23.8,07.9,0000.0,0002.03,0001.17,0000.85
2023-01-22 12:43:00,,0819.6,4.99,0.00,22.1,20.9,00.0,30.9,23.7,07.9,0000.0,0002.10,0001.18,0000.84
2023-01-22 12:44:00,,0819.6,5.00,0.00,22.0,20.7,00.0,30.9,23.6,07.9,0000.0,0002.11,0001.19,0000.84
2023-01-22 12:45:00,,0819.5,5.00,0.00,22.0,20.6,00.0,30.9,23.5,07.9,0000.0,0002.20,0001.20,0000.85
2023-01-22 12:46:00,,0819.6,4.98,0.00,21.9,20.4,00.0,30.9,23.4,08.0,0000.0,0002.20,0001.20,0000.84
2023-01-22 12:47:00,,0819.5,5.00,0.00,21.9,20.4,00.0,30.8,23.4,08.0,0000.0,0002.10,0001.18,0000.84
2023-01-22 12:48:00,,0819.6,5.02,0.00,21.9,21.2,00.0,30.8,23.6,08.0,0000.0,0002.05,0001.17,0000.85
2023-01-22 12:49:00,,0819.6,4.99,0.00,22.0,22.2,00.0,30.8,23.9,08.0,0000.0,0002.16,0001.21,0000.85
2023-01-22 12:50:00,,0819.6,5.01,0.00,22.1,22.7,00.0,30.8,24.1,08.0,0000.0,0002.20,0001.24,0000.86
2023-01-22 12:51:00,,0819.6,4.98,0.00,22.2,22.3,00.0,30.9,24.1,08.0,0000.0,0002.21,0001.25,0000.86
2023-01-22 12:52:00,,0819.6,5.03,0.00,22.2,21.8,00.0,30.9,24.0,08.0,0000.0,0002.15,0001.23,0000.85
2023-01-22 12:53:00,,0819.5,4.99,0.00,22.2,21.4,00.0,30.9,23.8,08.0,0000.0,0001.95,0001.17,0000.83
2023-01-22 12:54:00,,0819.5,5.00,0.00,22.1,21.0,00.0,30.9,23.7,08.0,0000.0,0001.91,0001.16,0000.83
2023-01-22 12:55:00,,0819.5,5.01,0.00,22.1,20.8,00.0,30.9,23.7,08.0,0000.0,0001.92,0001.18,0000.83
2023-01-22 12:56:00,,0819.6,4.99,0.00,22.0,20.6,00.0,30.9,23.6,08.0,0000.0,0001.89,0001.19,0000.83
2023-01-22 12:57:00,,0819.5,5.00,0.00,22.0,20.4,00.0,30.9,23.5,08.1,0000.0,0001.89,0001.18,0000.83
2023-01-22 12:58:00,,0819.5,4.99,0.00,21.9,20.4,00.0,30.9,23.4,08.1,0000.0,0001.90,0001.17,0000.84
2023-01-22 12:59:00,,0819.6,5.04,0.00,21.9,20.5,00.0,30.8,23.4,08.2,0000.0,0001.88,0001.16,0000.83
